TimeCDT,TemperatureF,Dew PointF,Humidity,Sea Level PressureIn,VisibilityMPH,Wind Direction,Wind SpeedMPH,Gust SpeedMPH,PrecipitationIn,Events,Conditions,WindDirDegrees,DateUTC
12:53 AM,54.0,50.0,86,30.05,9.0,ESE,5.8,-,0.00,,Overcast,120,2013-06-05 05:53:00
1:53 AM,54.0,51.1,90,30.03,8.0,SE,6.9,-,0.01,,Overcast,130,2013-06-05 06:53:00
2:53 AM,54.0,51.1,90,30.02,9.0,ESE,3.5,-,0.00,,Overcast,120,2013-06-05 07:53:00
3:53 AM,54.0,52.0,93,30.02,3.0,Calm,Calm,-,0.02,Rain,Light Rain,0,2013-06-05 08:53:00
4:11 AM,53.6,51.8,94,30.03,4.0,Calm,Calm,-,0.00,Rain,Light Rain,0,2013-06-05 09:11:00
4:17 AM,53.6,51.8,94,30.03,2.5,Calm,Calm,-,0.00,Rain,Light Rain,0,2013-06-05 09:17:00
4:30 AM,53.6,51.8,94,30.03,2.0,Calm,Calm,-,0.01,Rain,Light Rain,0,2013-06-05 09:30:00
4:46 AM,53.6,53.6,100,30.03,2.5,Calm,Calm,-,0.01,Rain,Light Rain,0,2013-06-05 09:46:00
4:53 AM,54.0,52.0,93,30.01,2.5,Calm,Calm,-,0.01,,Overcast,0,2013-06-05 09:53:00
5:14 AM,53.6,53.6,100,30.02,3.0,Calm,Calm,-,N/A,,Overcast,0,2013-06-05 10:14:00
5:53 AM,55.0,53.1,93,30.00,2.5,Calm,Calm,-,N/A,,Overcast,0,2013-06-05 10:53:00
6:35 AM,55.4,53.6,94,30.00,1.5,NNE,3.5,-,N/A,,Overcast,30,2013-06-05 11:35:00
6:53 AM,55.0,53.1,93,29.99,1.5,Calm,Calm,-,N/A,,Overcast,0,2013-06-05 11:53:00
7:32 AM,55.4,53.6,94,30.01,2.0,Calm,Calm,-,N/A,,Overcast,0,2013-06-05 12:32:00
7:53 AM,55.9,54.0,93,30.00,2.0,Calm,Calm,-,N/A,,Overcast,0,2013-06-05 12:53:00
8:43 AM,57.2,55.4,94,30.00,1.8,North,3.5,-,N/A,,Overcast,360,2013-06-05 13:43:00
8:53 AM,57.0,55.0,93,29.99,1.8,Calm,Calm,-,N/A,,Overcast,0,2013-06-05 13:53:00
9:04 AM,57.2,53.6,88,30.00,2.0,Calm,Calm,-,N/A,,Overcast,0,2013-06-05 14:04:00
9:44 AM,57.2,55.4,94,30.01,3.0,NNE,3.5,-,N/A,,Overcast,30,2013-06-05 14:44:00
9:53 AM,57.9,55.0,90,29.99,3.0,Calm,Calm,-,N/A,,Overcast,0,2013-06-05 14:53:00
10:17 AM,57.2,55.4,94,30.00,5.0,North,5.8,-,N/A,,Overcast,350,2013-06-05 15:17:00
10:53 AM,57.9,55.0,90,30.00,4.0,NNW,5.8,-,N/A,,Overcast,330,2013-06-05 15:53:00
11:53 AM,60.1,55.0,83,30.00,9.0,NNW,5.8,-,N/A,,Overcast,340,2013-06-05 16:53:00
12:53 PM,61.0,55.0,81,30.01,10.0,West,4.6,-,N/A,,Overcast,280,2013-06-05 17:53:00
1:15 PM,62.6,55.4,77,30.00,10.0,West,4.6,-,N/A,,Overcast,270,2013-06-05 18:15:00
1:53 PM,64.9,55.9,73,29.98,10.0,NW,4.6,-,N/A,,Overcast,320,2013-06-05 18:53:00
2:44 PM,66.2,55.4,68,29.97,10.0,West,6.9,-,N/A,,Mostly Cloudy,260,2013-06-05 19:44:00
2:53 PM,68.0,55.9,65,29.95,10.0,WSW,6.9,-,N/A,,Mostly Cloudy,250,2013-06-05 19:53:00
3:53 PM,69.1,55.0,61,29.94,10.0,West,11.5,-,N/A,,Mostly Cloudy,280,2013-06-05 20:53:00
4:53 PM,69.1,53.1,57,29.93,10.0,West,12.7,-,N/A,,Mostly Cloudy,280,2013-06-05 21:53:00
5:53 PM,66.0,52.0,60,29.92,10.0,WNW,12.7,-,N/A,,Mostly Cloudy,290,2013-06-05 22:53:00
6:53 PM,64.0,51.1,63,29.93,10.0,NW,9.2,-,N/A,,Mostly Cloudy,310,2013-06-05 23:53:00
7:53 PM,63.0,51.1,65,29.94,10.0,WNW,6.9,-,N/A,,Overcast,290,2013-06-06 00:53:00
8:53 PM,61.0,51.1,70,29.94,10.0,NW,8.1,-,N/A,,Overcast,310,2013-06-06 01:53:00
9:53 PM,57.9,52.0,81,29.95,10.0,WNW,5.8,-,N/A,,Overcast,290,2013-06-06 02:53:00
10:53 PM,57.0,52.0,83,29.95,10.0,WNW,5.8,-,N/A,,Overcast,300,2013-06-06 03:53:00
11:53 PM,55.9,52.0,87,29.95,10.0,NW,5.8,-,N/A,,Overcast,320,2013-06-06 04:53:00